Fryeburg, ME

9:10 PM EDT on April 20, 2018 (GMT -0400)
Eastern Slopes Regional

Weather History for KIZG - November, 2012

Change the Weather History Date:

Friday, November 23, 2012

  Actual Average Record
Temperature  
Mean Temperature 38 °F -  
Max Temperature 57 °F 41 °F 70 °F (1999)
Min Temperature 19 °F 22 °F 6 °F (2000)
Degree Days  
Heating Degree Days 27    
Moisture  
Dew Point 29 °F    
Average Humidity 85    
Maximum Humidity 100    
Minimum Humidity 36    
Precipitation  
Precipitation 0.00 in - - ()
Sea Level Pressure  
Sea Level Pressure 29.88 in    
Wind  
Wind Speed 1 mph (SW)    
Max Wind Speed 7 mph    
Max Gust Speed -    
Visibility 8 miles    
Events Fog , Rain    
Averages and records for this station are not official NWS values.
T = Trace of Precipitation, MM = Missing Value Source: NWS Daily Summary

Daily Weather History Graph

Daily Weather History Graph

Search for Another Location

Airport or City:

Astronomy

Nov. 23, 2012 Rise Set
Actual Time 6:49 AM EST 4:10 PM EST
Civil Twilight 6:17 AM EST 4:42 PM EST
Nautical Twilight 5:42 AM EST 5:18 PM EST
Astronomical Twilight 5:07 AM EST 5:52 PM EST
Moon 1:31 PM EST (11/23) 1:57 AM EST (11/23)
Length of Visible Light 10h 24m
Length of Day
9h 21m
Waxing Gibbous, 79% of the Moon is Illuminated
Nov 23
Waxing Gibbous
Nov 28
Full
Dec 6
Last Quarter
Dec 13
New
Dec 20
First Quarter

Hourly Weather History & Observations

Time (EST) Temp. Windchill Dew Point Humidity Pressure Visibility Wind Dir Wind Speed Gust Speed Precip Events Conditions
12:54 AM 23.0 °F - 21.9 °F 96% 30.09 in 10.0 mi Calm Calm - N/A   Clear
1:54 AM 23.0 °F - 21.0 °F 92% 30.09 in 10.0 mi Calm Calm - N/A   Clear
2:54 AM 23.0 °F - 21.0 °F 92% 30.06 in 10.0 mi Calm Calm - N/A   Clear
3:09 AM 21.2 °F 16.4 °F 19.4 °F 93% 30.04 in 10.0 mi NW 3.5 mph - N/A   Scattered Clouds
3:54 AM 21.9 °F - 19.9 °F 92% 30.06 in 10.0 mi Calm Calm - N/A   Clear
4:05 AM 21.2 °F - 19.4 °F 93% 30.03 in 10.0 mi Calm Calm - 0.00 in   Scattered Clouds
4:54 AM 21.0 °F - 19.0 °F 92% 30.04 in 10.0 mi Calm Calm - 0.00 in   Scattered Clouds
5:54 AM 21.0 °F - 19.0 °F 92% 30.03 in 10.0 mi Calm Calm - N/A   Scattered Clouds
6:31 AM 19.4 °F - 17.6 °F 93% 30.00 in 10.0 mi Calm Calm - N/A   Mostly Cloudy
6:43 AM 19.4 °F 14.3 °F 17.6 °F 93% 30.00 in 10.0 mi NW 3.5 mph - N/A   Scattered Clouds
7:39 AM 21.2 °F - 19.4 °F 93% 29.99 in 10.0 mi Calm Calm - N/A   Mostly Cloudy
7:54 AM 25.0 °F - 23.0 °F 92% 30.01 in 9.0 mi Calm Calm - N/A   Overcast
8:04 AM 26.6 °F - 24.8 °F 93% 29.98 in 0.8 mi Calm Calm - N/A   Mist
8:12 AM 26.6 °F - 26.6 °F 100% 29.98 in 0.2 mi Calm Calm - N/A Fog Light Freezing Fog
8:31 AM 28.4 °F - 28.4 °F 100% 29.97 in 0.2 mi Calm Calm - 0.00 in Fog , Rain Light Freezing Rain
8:54 AM 30.0 °F - 28.9 °F 96% 29.98 in 1.5 mi Calm Calm - 0.00 in   Overcast
8:57 AM 30.2 °F - 30.2 °F 100% 29.96 in 3.0 mi Calm Calm - N/A   Mostly Cloudy
9:11 AM 32.0 °F - 30.2 °F 93% 29.96 in 10.0 mi Calm Calm - N/A   Scattered Clouds
9:54 AM 35.1 °F - 32.0 °F 89% 29.96 in 10.0 mi Calm Calm - 0.00 in Rain Light Rain
10:54 AM 44.1 °F - 33.1 °F 65% 29.92 in 10.0 mi Calm Calm - 0.00 in Rain Light Rain
11:54 AM 51.1 °F - 35.1 °F 54% 29.87 in 10.0 mi Calm Calm - 0.00 in   Clear
12:54 PM 54.0 °F - 34.0 °F 47% 29.82 in 10.0 mi Calm Calm - 0.00 in   Clear
1:54 PM 55.9 °F - 33.1 °F 42% 29.79 in 10.0 mi Calm Calm - 0.00 in   Clear
2:54 PM 57.9 °F - 30.9 °F 36% 29.77 in 10.0 mi Calm Calm - N/A   Clear
3:54 PM 53.1 °F - 34.0 °F 48% 29.75 in 10.0 mi South 5.8 mph - N/A   Clear
4:54 PM 50.0 °F - 36.0 °F 59% 29.75 in 10.0 mi South 6.9 mph - N/A   Clear
5:54 PM 46.0 °F 44.8 °F 39.0 °F 76% 29.74 in 10.0 mi SSE 3.5 mph - N/A   Clear
6:54 PM 41.0 °F - 39.0 °F 93% 29.74 in 10.0 mi Calm Calm - N/A   Clear
7:54 PM 39.9 °F 37.8 °F 39.0 °F 97% 29.72 in 7.0 mi Variable 3.5 mph - N/A   Clear
8:19 PM 37.4 °F - 35.6 °F 93% 29.70 in 1.8 mi Calm Calm - N/A   Clear
8:40 PM 37.4 °F - 35.6 °F 93% 29.68 in 2.0 mi Calm Calm - N/A   Partly Cloudy
8:54 PM 37.9 °F - 37.0 °F 97% 29.70 in 3.0 mi Calm Calm - N/A   Mostly Cloudy
9:52 PM 37.4 °F - 37.4 °F 100% 29.66 in 5.0 mi Calm Calm - N/A   Overcast
9:54 PM 39.0 °F - 37.9 °F 96% 29.67 in 5.0 mi Calm Calm - N/A   Overcast
10:54 PM 37.9 °F - 37.0 °F 97% 29.65 in 6.0 mi Calm Calm - N/A   Overcast
11:54 PM 39.0 °F - 37.9 °F 96% 29.62 in 4.0 mi Calm Calm - 0.00 in   Overcast